Regional Weather Roundup
Issued by NWS Mt. Holly, NJ

Home | Current Version | Previous Version | Text Only | Print | Product List | Glossary On
Versions: 1 2 3 4 5 6 7 8 9 10 11 12 13 14 15 16 17 18 19 20 21 22 23 24 25 26 27 28 29 30 31 32 33 34 35 36 37 38 39 40 41 42 43 44 45 46 47 48 49 50
000
ASUS41 KPHI 290212
RWRPHI

REGIONAL WEATHER ROUNDUP
NATIONAL WEATHER SERVICE MOUNT HOLLY NJ
1000 PM EDT THU JUL 28 2016

NOTE:  "FAIR" INDICATES FEW OR NO CLOUDS BELOW 12,000 FEET WITH NO
SIGNIFICANT WEATHER AND/OR OBSTRUCTIONS TO VISIBILITY.

 * = STATION DOES NOT REPORT PRECIPITATION (E.G. RAIN, SNOW, ETC.)
        OR FOG.

NJZ015>026-290300-
SOUTHERN NEW JERSEY

CITY           SKY/WX    TMP DP  RH WIND       PRES   REMARKS
POMONA         CLOUDY    74  72  93 E5        29.85F
WILDWOOD*        N/A    N/A N/A N/A MISG        N/A
MILLVILLE      CLOUDY    74  72  93 CALM      29.84F
MOUNT HOLLY    CLOUDY    73  72  96 N3        29.87S FOG
TRENTON        CLOUDY    75  71  87 CALM      29.88S

$$
NJZ001>014-290300-
NORTHERN NEW JERSEY

CITY           SKY/WX    TMP DP  RH WIND       PRES   REMARKS
SUSSEX         LGT RAIN  72  72 100 CALM      29.89S FOG
ANDOVER*         N/A     73  71  93 CALM      29.90F
MORRISTOWN     PTCLDY    73  72  94 CALM      29.89S
NEWARK         LGT RAIN  78  69  73 W7        29.86F
TETERBORO      LGT RAIN  79  70  74 SW7       29.86S
CALDWELL       CLOUDY    77  73  87 CALM      29.88S
SOMERVILLE     CLOUDY    75  73  93 CALM      29.86F FOG
ALLAIRE*       CLOUDY    74  70  87 CALM      29.89S
TOMS RIVER*    CLOUDY    73  72  96 CALM      29.87S

$$
PAZ043-044-047-054-055-060>062-066>071-290300-
EASTERN PENNSYLVANIA

CITY           SKY/WX    TMP DP  RH WIND       PRES   REMARKS
PHILADELPHIA   CLOUDY    76  71  85 N3        29.88S
NORTH PHILA    CLOUDY    76  72  87 NE3       29.89S
BLUE BELL*     CLOUDY    72  72 100 CALM      29.89R
DOYLESTOWN     CLOUDY    72  72 100 CALM      29.89S
QUAKERTOWN*    MOCLDY    73  73 100 CALM      29.91S
PERKASIE*      CLOUDY    72  72 100 CALM      29.92R FOG
POTTSTOWN      LGT RAIN  73  72  96 CALM      29.91R FOG
LANCASTER      LGT RAIN  73  72  96 SE3       29.90R FOG
COATESVILLE    LGT RAIN  72  72 100 CALM      29.93R VSB 1/4
READING        LGT RAIN  73  71  93 CALM      29.89R
ALLENTOWN      LGT RAIN  75  72  90 CALM      29.89F
MOUNT POCONO   CLOUDY    68  66  93 NW5       29.96S
HAZLETON       CLOUDY    70  64  83 CALM      29.97R
LEHIGHTON      DRIZZLE   72  70  94 CALM      29.91S
WILKES BARRE   LGT RAIN  75  68  78 S3        29.92R

$$
DEZALL-MDZ008-012-015-019-020-290300-
DELAWARE AND EASTERN MARYLAND

CITY           SKY/WX    TMP DP  RH WIND       PRES   REMARKS
WILMINGTON     CLOUDY    76  72  87 NW8       29.88S
GEORGETOWN     CLOUDY    75  73  93 VRB5      29.83F
PATUXENT       TSTM      78  75  90 E9        29.83R
OCEAN CITY       N/A    N/A N/A N/A MISG      29.82F
WALLOPS ISLAND FAIR      78  73  84 SE14      29.82F
CAMBRIDGE      CLOUDY    72  72 100 CALM      29.81F

$$
PAZ001-021-NYZ056-072-MDZ011-DCZ001-290300-
OTHER NEARBY LOCATIONS

CITY           SKY/WX    TMP DP  RH WIND       PRES   REMARKS
HARRISBURG     LGT RAIN  75  74  96 SE6       29.88R
STATE COLLEGE  LGT RAIN  69  68  96 CALM      29.94R
WILLIAMSPORT   LGT RAIN  75  65  70 W7        29.89R
BINGHAMTON       N/A     74  64  71 NE6       29.93R
NEW YORK CITY  CLOUDY    79  67  66 VRB3      29.90S HAZE
BALTIMORE      LGT RAIN  75  74  96 N7        29.86F FOG
WASHINGTON DC  LGT RAIN  78  75  90 NE9       29.84F

$$



USA.gov is the U.S. government's official web portal to all federal, state and local government web resources and services.